Le nostre stazioni meteo in Italia

Pubblicità
Il mio iltempo24.it
Passo Rolle, Italia (16021): Temperatura & dewpoint: 14.01.2019 07:00:00 - 20.01.2019 07:00:00 (CET)Passo Rolle, Italia (16021): velocità del vento: 14.01.2019 07:00:00 - 20.01.2019 07:00:00 (CET)Passo Rolle, Italia (16021): direzione del vento: 14.01.2019 07:00:00 - 20.01.2019 07:00:00 (CET)Passo Rolle, Italia (16021): visibility: 14.01.2019 07:00:00 - 20.01.2019 07:00:00 (CET)
Data & Tempo tt [°C] td [°C] ff [km/h] ff [kn] dd vv [km]
20.01.2019 07:00:00 -8,2 -12,7 9 5 N 30
20.01.2019 06:00:00 -8,0 -12,0 8 4 NNO 10
20.01.2019 05:00:00 -8,0 -14,0 8 4 N 10
20.01.2019 04:00:00 -7,8 -12,0 8 4 N 10
20.01.2019 03:00:00 - - - - - -
20.01.2019 02:00:00 - - - - - -
20.01.2019 01:00:00 -8,2 -9,6 4 2 NNO 10
20.01.2019 00:00:00 - - - - - -
19.01.2019 23:00:00 - - - - - -
19.01.2019 22:00:00 -7,6 -9,0 4 2 OSO 10
19.01.2019 21:00:00 - - - - - -
19.01.2019 20:00:00 - - - - - -
19.01.2019 19:00:00 -7,6 -9,0 5 3 NO 0,6
19.01.2019 18:00:00 -6,0 -8,0 4 2 NNO 0,8
19.01.2019 17:00:00 -5,0 -6,0 0 0 N 0,8
19.01.2019 16:00:00 -6,2 -7,6 5 3 ESE 0,8
19.01.2019 15:00:00 -5,0 -8,0 5 3 NNE 10
19.01.2019 14:00:00 -5,0 -8,0 5 3 NNO 10
19.01.2019 13:00:00 -5,8 -7,8 4 2 N 15
19.01.2019 12:00:00 -6,0 -8,0 4 2 ENE 10
19.01.2019 11:00:00 -7,0 -8,0 4 2 E 10
19.01.2019 10:00:00 -7,0 -8,1 4 2 N 0,6
19.01.2019 09:00:00 -8,0 -9,0 4 2 N 0,1
19.01.2019 08:00:00 -7,0 -8,0 9 5 SE 0,1
19.01.2019 07:00:00 -7,2 -8,3 9 5 SE 0,1
19.01.2019 06:00:00 - - - - - -
19.01.2019 05:00:00 -7,0 -8,0 8 4 SSE 0,3
19.01.2019 04:00:00 -6,8 -7,9 9 5 SE 0,3
19.01.2019 03:00:00 - - - - - -
19.01.2019 02:00:00 - - - - - -
19.01.2019 01:00:00 -6,4 -7,5 16 9 SE 0,1
19.01.2019 00:00:00 - - - - - -
18.01.2019 23:00:00 - - - - - -
18.01.2019 22:00:00 -6,2 -7,3 8 4 S 0,1
18.01.2019 21:00:00 - - - - - -
18.01.2019 20:00:00 - - - - - -
18.01.2019 19:00:00 -6,4 -12,1 5 3 ESE 10
18.01.2019 18:00:00 -6,0 -11,0 5 3 SE 10
18.01.2019 17:00:00 - - - - - -
18.01.2019 16:00:00 -4,6 -15,0 5 3 NO 80
18.01.2019 15:00:00 -5,0 -15,0 5 3 NO 10
18.01.2019 14:00:00 - - - - - -
18.01.2019 13:00:00 -5,4 -15,2 5 3 NNO 72
18.01.2019 12:00:00 -6,0 -14,0 11 6 NNO 10
18.01.2019 11:00:00 -7,0 -15,0 13 7 ONO 10
18.01.2019 10:00:00 -7,0 -14,5 11 6 NNO 80
18.01.2019 09:00:00 - - - - - -
18.01.2019 08:00:00 - - - - - -
18.01.2019 07:00:00 -7,6 -11,3 15 8 NNO 50
18.01.2019 06:00:00 - - - - - -
18.01.2019 05:00:00 - - - - - -
18.01.2019 04:00:00 - - - - - -
18.01.2019 03:00:00 - - - - - -
18.01.2019 02:00:00 - - - - - -
18.01.2019 01:00:00 - - - - - -
18.01.2019 00:00:00 - - - - - -
17.01.2019 23:00:00 - - - - - -
17.01.2019 22:00:00 -3,0 -4,4 18 10 SE 0,6
17.01.2019 21:00:00 - - - - - -
17.01.2019 20:00:00 - - - - - -
17.01.2019 19:00:00 -3,4 -4,0 18 10 SE 0,6
17.01.2019 18:00:00 - - - - - -
17.01.2019 17:00:00 - - - - - -
17.01.2019 16:00:00 -3,4 -3,8 18 10 SE 0,9
17.01.2019 15:00:00 -3,0 -4,0 22 12 SE 10
17.01.2019 14:00:00 -3,0 -4,0 16 9 SE 10
17.01.2019 13:00:00 -2,8 -4,2 22 12 SE 10
17.01.2019 12:00:00 -3,0 -4,0 22 12 SE 10
17.01.2019 11:00:00 -3,0 -4,0 18 10 ESE 10
17.01.2019 10:00:00 -3,0 -3,8 16 9 SE 6
17.01.2019 09:00:00 - - - - - -
17.01.2019 08:00:00 -3,0 -4,0 8 4 SSE 10
17.01.2019 07:00:00 -3,4 -5,7 11 6 SSE 30
17.01.2019 06:00:00 - - - - - -
17.01.2019 05:00:00 - - - - - -
17.01.2019 04:00:00 -3,4 -4,0 8 4 N 10
17.01.2019 03:00:00 - - - - - -
17.01.2019 02:00:00 - - - - - -
17.01.2019 01:00:00 -4,0 -4,4 4 2 NNO 10
17.01.2019 00:00:00 - - - - - -
16.01.2019 23:00:00 - - - - - -
16.01.2019 22:00:00 -4,6 -5,0 8 4 NNO 10
16.01.2019 21:00:00 - - - - - -
16.01.2019 20:00:00 - - - - - -
16.01.2019 19:00:00 -4,4 -6,1 8 4 NNO 10
16.01.2019 18:00:00 -4,0 -10,0 9 5 NO 10
16.01.2019 17:00:00 - - - - - -
16.01.2019 16:00:00 -2,4 -12,4 8 4 NNO 40
16.01.2019 15:00:00 0,0 -12,0 8 4 ONO 10
16.01.2019 14:00:00 0,0 -12,0 5 3 OSO 10
16.01.2019 13:00:00 -1,0 -12,6 5 3 O 50
16.01.2019 12:00:00 -1,0 -14,0 8 4 ONO 10
16.01.2019 11:00:00 0,0 -15,0 9 5 NNO 10
16.01.2019 10:00:00 -0,6 -14,9 5 3 O 50
16.01.2019 09:00:00 -1,0 -15,0 9 5 NO 10
16.01.2019 08:00:00 -1,0 -15,0 9 5 NNO 10
16.01.2019 07:00:00 -1,4 -15,6 5 3 NNO 12
16.01.2019 06:00:00 -2,0 -15,0 9 5 NNE 10
16.01.2019 05:00:00 - - - - - -
16.01.2019 04:00:00 -1,6 -15,8 4 2 N 10
16.01.2019 03:00:00 - - - - - -
16.01.2019 02:00:00 - - - - - -
16.01.2019 01:00:00 -2,6 -15,0 15 8 NO 10
16.01.2019 00:00:00 - - - - - -
15.01.2019 23:00:00 - - - - - -
15.01.2019 22:00:00 -3,6 -15,0 16 9 NNE 10
15.01.2019 21:00:00 - - - - - -
15.01.2019 20:00:00 - - - - - -
15.01.2019 19:00:00 -4,8 -15,7 9 5 NNO 10
15.01.2019 18:00:00 -6,0 -16,0 11 6 NNO 10
15.01.2019 17:00:00 -5,0 -17,0 11 6 N 10
15.01.2019 16:00:00 -3,4 -17,4 5 3 ONO 50
15.01.2019 15:00:00 -4,0 -16,0 11 6 O 10
15.01.2019 14:00:00 -4,0 -17,0 8 4 NNO 10
15.01.2019 13:00:00 -4,8 -17,0 11 6 O 50
15.01.2019 12:00:00 -4,0 -20,0 28 15 NO 10
15.01.2019 11:00:00 -5,0 -19,0 28 15 NNO 10
15.01.2019 10:00:00 -6,0 -18,0 21 11 NNO 50
15.01.2019 09:00:00 -7,0 -17,0 37 20 NO 10
15.01.2019 08:00:00 -8,0 -19,0 37 20 NO 10
15.01.2019 07:00:00 -8,6 -15,0 35 19 ONO 12
15.01.2019 06:00:00 -9,0 -14,0 0 0 N 10
15.01.2019 05:00:00 -9,0 -15,0 29 16 NO 10
15.01.2019 04:00:00 -8,6 -15,0 29 16 NO 10
15.01.2019 03:00:00 - - - - - -
15.01.2019 02:00:00 - - - - - -
15.01.2019 01:00:00 -8,6 -15,6 28 15 NNO 10
15.01.2019 00:00:00 - - - - - -
14.01.2019 23:00:00 - - - - - -
14.01.2019 22:00:00 -7,4 -14,3 37 20 NNO 10
14.01.2019 21:00:00 - - - - - -
14.01.2019 20:00:00 - - - - - -
14.01.2019 19:00:00 -6,6 -6,9 15 8 NO 2,0
14.01.2019 18:00:00 -7,0 -7,0 16 9 ONO 2,0
14.01.2019 17:00:00 -6,0 -7,0 22 12 NO 3,0
14.01.2019 16:00:00 -5,6 -8,8 28 15 NO 3,0
14.01.2019 15:00:00 -4,0 -11,0 29 16 NO 10
14.01.2019 14:00:00 -4,0 -11,0 22 12 NO 10
14.01.2019 13:00:00 -4,0 -10,8 24 13 O 80
14.01.2019 12:00:00 -5,0 -11,0 39 21 NO 10
14.01.2019 11:00:00 -5,0 -11,0 31 17 ONO 10
14.01.2019 10:00:00 -4,8 -12,0 46 25 NO 30
14.01.2019 09:00:00 - - - - - -
14.01.2019 08:00:00 - - - - - -
14.01.2019 07:00:00 -3,4 -4,1 37 20 N 0,1

tt = Temperatura
td = dewpoint
ff = velocità del vento
dd = direzione del vento
vv = visibility

Stazioni seguenti

WeatherPro
AMSI
MeteoEarth